Time,TemperatureF,DewpointF,PressureIn,WindDirection,WindDirectionDegrees,WindSpeedMPH,WindSpeedGustMPH,Humidity,HourlyPrecipIn,Conditions,Clouds,dailyrainin,SoftwareType,DateUTC
2013-02-06 00:02:00,16.0,9.0,29.85,North,0,0.0,-999.0,72,-99.99,,,-99.99,,2013-02-06 05:02:00,
2013-02-06 00:12:00,16.0,9.0,29.84,North,0,0.0,-999.0,72,-99.99,,,-99.99,,2013-02-06 05:12:00,
2013-02-06 00:22:00,16.0,10.0,29.83,North,0,0.0,-999.0,78,-99.99,,,-99.99,,2013-02-06 05:22:00,
2013-02-06 00:32:00,16.0,10.0,29.83,North,0,0.0,-999.0,78,-99.99,,,-99.99,,2013-02-06 05:32:00,
2013-02-06 00:41:00,16.0,10.0,29.83,North,0,0.0,-999.0,78,-99.99,,,-99.99,,2013-02-06 05:41:00,
2013-02-06 00:53:00,16.0,10.0,29.83,North,0,0.0,-999.0,78,-99.99,,,-99.99,,2013-02-06 05:53:00,
2013-02-06 01:01:00,16.0,10.0,29.83,North,0,0.0,-999.0,78,-99.99,,,-99.99,,2013-02-06 06:01:00,
2013-02-06 01:11:00,16.0,10.0,29.82,North,0,0.0,-999.0,78,-99.99,,,-99.99,,2013-02-06 06:11:00,
2013-02-06 01:21:00,16.0,10.0,29.82,North,0,0.0,-999.0,78,-99.99,,,-99.99,,2013-02-06 06:21:00,
2013-02-06 01:32:00,16.0,12.0,29.82,SSW,200,3.0,-999.0,85,-99.99,,,-99.99,,2013-02-06 06:32:00,
2013-02-06 01:42:00,16.0,12.0,29.82,SSW,200,3.0,-999.0,85,-99.99,,,-99.99,,2013-02-06 06:42:00,
2013-02-06 01:51:00,19.0,12.0,29.82,SSW,200,3.0,-999.0,73,-99.99,,,-99.99,,2013-02-06 06:51:00,
2013-02-06 02:02:00,19.0,12.0,29.82,SSW,200,3.0,-999.0,73,-99.99,,,-99.99,,2013-02-06 07:02:00,
2013-02-06 02:11:00,21.0,16.0,29.82,SSW,200,3.0,-999.0,79,-99.99,,,-99.99,,2013-02-06 07:11:00,
2013-02-06 02:22:00,21.0,16.0,29.81,SSW,210,5.0,-999.0,79,-99.99,,,-99.99,,2013-02-06 07:22:00,
2013-02-06 02:32:00,21.0,16.0,29.81,SW,220,6.0,-999.0,79,-99.99,,,-99.99,,2013-02-06 07:32:00,
2013-02-06 02:42:00,23.0,18.0,29.81,SW,220,6.0,-999.0,79,-99.99,,,-99.99,,2013-02-06 07:42:00,
2013-02-06 02:51:00,25.0,18.0,29.81,SW,230,8.0,-999.0,73,-99.99,,,-99.99,,2013-02-06 07:51:00,
2013-02-06 03:01:00,25.0,18.0,29.81,SW,230,8.0,-999.0,73,-99.99,,,-99.99,,2013-02-06 08:01:00,
2013-02-06 03:11:00,25.0,19.0,29.81,WSW,240,13.0,-999.0,79,-99.99,,,-99.99,,2013-02-06 08:11:00,
2013-02-06 03:21:00,25.0,19.0,29.81,WSW,240,12.0,-999.0,79,-99.99,,,-99.99,,2013-02-06 08:21:00,
2013-02-06 03:32:00,25.0,19.0,29.81,WSW,240,12.0,-999.0,79,-99.99,,,-99.99,,2013-02-06 08:32:00,
2013-02-06 03:42:00,25.0,19.0,29.81,WSW,240,13.0,-999.0,79,-99.99,,,-99.99,,2013-02-06 08:42:00,
2013-02-06 03:53:00,25.0,19.0,29.81,WSW,240,10.0,-999.0,79,-99.99,,,-99.99,,2013-02-06 08:53:00,
2013-02-06 04:02:00,25.0,19.0,29.81,WSW,240,10.0,-999.0,79,-99.99,,,-99.99,,2013-02-06 09:02:00,
2013-02-06 04:11:00,25.0,19.0,29.82,WSW,240,10.0,-999.0,79,-99.99,,,-99.99,,2013-02-06 09:11:00,
2013-02-06 04:21:00,25.0,21.0,29.82,WSW,240,9.0,16.0,85,-99.99,,,-99.99,,2013-02-06 09:21:00,
2013-02-06 04:32:00,25.0,21.0,29.82,WSW,240,10.0,-999.0,85,-99.99,,,-99.99,,2013-02-06 09:32:00,
2013-02-06 04:41:00,25.0,21.0,29.82,WSW,240,9.0,-999.0,85,-99.99,,,-99.99,,2013-02-06 09:41:00,
2013-02-06 04:52:00,25.0,21.0,29.82,SW,230,13.0,17.0,85,-99.99,,,-99.99,,2013-02-06 09:52:00,
2013-02-06 05:01:00,25.0,21.0,29.82,SW,230,13.0,17.0,85,-99.99,,,-99.99,,2013-02-06 10:01:00,
2013-02-06 05:11:00,25.0,21.0,29.83,WSW,240,15.0,21.0,85,-99.99,,,-99.99,,2013-02-06 10:11:00,
2013-02-06 05:21:00,27.0,23.0,29.83,WSW,250,14.0,18.0,86,-99.99,,,-99.99,,2013-02-06 10:21:00,
2013-02-06 05:32:00,27.0,23.0,29.84,WSW,250,12.0,20.0,86,-99.99,,,-99.99,,2013-02-06 10:32:00,
2013-02-06 05:42:00,27.0,23.0,29.84,WSW,250,15.0,20.0,86,-99.99,,,-99.99,,2013-02-06 10:42:00,
2013-02-06 05:52:00,27.0,23.0,29.84,WSW,250,13.0,16.0,86,-99.99,,,-99.99,,2013-02-06 10:52:00,
2013-02-06 06:01:00,27.0,23.0,29.84,WSW,250,13.0,16.0,86,-99.99,,,-99.99,,2013-02-06 11:01:00,
2013-02-06 06:11:00,27.0,23.0,29.85,WSW,240,12.0,-999.0,86,-99.99,,,-99.99,,2013-02-06 11:11:00,
2013-02-06 06:22:00,25.0,23.0,29.86,WSW,240,12.0,-999.0,92,-99.99,,,-99.99,,2013-02-06 11:22:00,
2013-02-06 06:32:00,25.0,25.0,29.86,WSW,250,13.0,-999.0,100,-99.99,,,-99.99,,2013-02-06 11:32:00,
2013-02-06 06:42:00,25.0,25.0,29.86,WSW,250,10.0,-999.0,100,-99.99,,,-99.99,,2013-02-06 11:42:00,
2013-02-06 06:52:00,25.0,25.0,29.88,West,260,10.0,-999.0,100,-99.99,,,-99.99,,2013-02-06 11:52:00,
2013-02-06 07:02:00,25.0,25.0,29.88,West,260,10.0,-999.0,100,-99.99,,,-99.99,,2013-02-06 12:02:00,
2013-02-06 07:12:00,25.0,25.0,29.88,West,270,12.0,-999.0,100,-99.99,,,-99.99,,2013-02-06 12:12:00,
2013-02-06 07:22:00,25.0,25.0,29.89,West,280,10.0,-999.0,100,-99.99,,,-99.99,,2013-02-06 12:22:00,
2013-02-06 07:32:00,25.0,25.0,29.90,West,280,10.0,-999.0,100,-99.99,,,-99.99,,2013-02-06 12:32:00,
2013-02-06 07:42:00,25.0,25.0,29.91,West,280,12.0,-999.0,100,-99.99,,,-99.99,,2013-02-06 12:42:00,
2013-02-06 07:52:00,25.0,23.0,29.91,West,280,10.0,-999.0,92,-99.99,,,-99.99,,2013-02-06 12:52:00,
2013-02-06 08:02:00,25.0,23.0,29.91,West,280,10.0,-999.0,92,-99.99,,,-99.99,,2013-02-06 13:02:00,
2013-02-06 08:12:00,25.0,23.0,29.92,West,280,8.0,-999.0,92,-99.99,,,-99.99,,2013-02-06 13:12:00,
2013-02-06 08:22:00,25.0,21.0,29.93,WNW,290,8.0,-999.0,85,-99.99,,,-99.99,,2013-02-06 13:22:00,
2013-02-06 08:32:00,25.0,21.0,29.94,WNW,290,12.0,-999.0,85,-99.99,,,-99.99,,2013-02-06 13:32:00,
2013-02-06 08:42:00,25.0,19.0,29.94,WNW,300,8.0,23.0,79,-99.99,,,-99.99,,2013-02-06 13:42:00,
2013-02-06 08:52:00,25.0,19.0,29.95,WNW,300,12.0,17.0,79,-99.99,,,-99.99,,2013-02-06 13:52:00,
2013-02-06 09:02:00,25.0,19.0,29.95,WNW,300,12.0,17.0,79,-99.99,,,-99.99,,2013-02-06 14:02:00,
2013-02-06 09:11:00,25.0,18.0,29.96,NW,320,8.0,-999.0,73,-99.99,,,-99.99,,2013-02-06 14:11:00,
2013-02-06 09:22:00,25.0,18.0,29.97,NW,310,12.0,20.0,73,-99.99,,,-99.99,,2013-02-06 14:22:00,
2013-02-06 09:32:00,25.0,18.0,29.97,NW,310,14.0,18.0,73,-99.99,,,-99.99,,2013-02-06 14:32:00,
2013-02-06 09:42:00,25.0,18.0,29.98,NW,320,13.0,20.0,73,-99.99,,,-99.99,,2013-02-06 14:42:00,
2013-02-06 09:52:00,21.0,16.0,29.99,NNW,330,13.0,23.0,79,-99.99,,,-99.99,,2013-02-06 14:52:00,
2013-02-06 10:02:00,21.0,16.0,29.99,NNW,330,13.0,23.0,79,-99.99,,,-99.99,,2013-02-06 15:02:00,
2013-02-06 10:11:00,19.0,16.0,30.00,NNW,340,14.0,17.0,85,-99.99,,,-99.99,,2013-02-06 15:11:00,
2013-02-06 10:21:00,19.0,14.0,30.01,NNW,330,12.0,-999.0,79,-99.99,,,-99.99,,2013-02-06 15:21:00,
2013-02-06 10:32:00,19.0,14.0,30.02,NNW,340,15.0,-999.0,79,-99.99,,,-99.99,,2013-02-06 15:32:00,
2013-02-06 10:42:00,19.0,14.0,30.03,NNW,330,13.0,16.0,79,-99.99,,,-99.99,,2013-02-06 15:42:00,
2013-02-06 10:52:00,19.0,12.0,30.04,NNW,330,16.0,21.0,73,-99.99,,,-99.99,,2013-02-06 15:52:00,
2013-02-06 11:01:00,19.0,12.0,30.04,NNW,330,16.0,21.0,73,-99.99,,,-99.99,,2013-02-06 16:01:00,
2013-02-06 11:11:00,18.0,10.0,30.06,NNW,330,12.0,21.0,72,-99.99,,,-99.99,,2013-02-06 16:11:00,
2013-02-06 11:21:00,18.0,9.0,30.07,NW,320,15.0,24.0,67,-99.99,,,-99.99,,2013-02-06 16:21:00,
2013-02-06 11:32:00,18.0,7.0,30.08,NW,310,15.0,22.0,62,-99.99,,,-99.99,,2013-02-06 16:32:00,
2013-02-06 11:42:00,18.0,7.0,30.09,NW,310,13.0,16.0,62,-99.99,,,-99.99,,2013-02-06 16:42:00,
2013-02-06 11:52:00,18.0,7.0,30.09,NNW,330,10.0,-999.0,62,-99.99,,,-99.99,,2013-02-06 16:52:00,
2013-02-06 12:02:00,18.0,7.0,30.09,NNW,330,10.0,-999.0,62,-99.99,,,-99.99,,2013-02-06 17:02:00,
2013-02-06 12:11:00,18.0,5.0,30.09,NW,320,10.0,-999.0,57,-99.99,,,-99.99,,2013-02-06 17:11:00,
2013-02-06 12:22:00,18.0,3.0,30.09,WNW,290,15.0,-999.0,52,-99.99,,,-99.99,,2013-02-06 17:22:00,
2013-02-06 12:32:00,18.0,1.0,30.10,WNW,290,13.0,21.0,48,-99.99,,,-99.99,,2013-02-06 17:32:00,
2013-02-06 12:42:00,18.0,1.0,30.11,NW,310,13.0,-999.0,48,-99.99,,,-99.99,,2013-02-06 17:42:00,
2013-02-06 12:52:00,18.0,0.0,30.11,WNW,300,14.0,-999.0,44,-99.99,,,-99.99,,2013-02-06 17:52:00,
2013-02-06 13:01:00,18.0,0.0,30.11,WNW,300,14.0,-999.0,44,-99.99,,,-99.99,,2013-02-06 18:01:00,
2013-02-06 13:11:00,18.0,1.0,30.12,NW,320,14.0,18.0,48,-99.99,,,-99.99,,2013-02-06 18:11:00,
2013-02-06 13:23:00,18.0,-2.0,30.13,NW,320,13.0,18.0,40,-99.99,,,-99.99,,2013-02-06 18:23:00,
2013-02-06 13:32:00,18.0,-2.0,30.14,NW,310,15.0,-999.0,40,-99.99,,,-99.99,,2013-02-06 18:32:00,
2013-02-06 13:42:00,16.0,-2.0,30.14,NW,310,10.0,-999.0,44,-99.99,,,-99.99,,2013-02-06 18:42:00,
2013-02-06 13:52:00,16.0,-4.0,30.15,NW,320,16.0,22.0,40,-99.99,,,-99.99,,2013-02-06 18:52:00,
2013-02-06 14:02:00,16.0,-4.0,30.15,NW,320,16.0,22.0,40,-99.99,,,-99.99,,2013-02-06 19:02:00,
2013-02-06 14:11:00,16.0,-4.0,30.15,NNW,330,10.0,-999.0,40,-99.99,,,-99.99,,2013-02-06 19:11:00,
2013-02-06 14:21:00,16.0,-2.0,30.16,NW,320,10.0,16.0,44,-99.99,,,-99.99,,2013-02-06 19:21:00,
2013-02-06 14:32:00,16.0,-2.0,30.16,NW,310,8.0,-999.0,44,-99.99,,,-99.99,,2013-02-06 19:32:00,
2013-02-06 14:42:00,16.0,-2.0,30.17,West,280,9.0,-999.0,44,-99.99,,,-99.99,,2013-02-06 19:42:00,
2013-02-06 14:52:00,16.0,-2.0,30.18,WNW,300,12.0,16.0,44,-99.99,,,-99.99,,2013-02-06 19:52:00,
2013-02-06 15:01:00,16.0,-2.0,30.18,WNW,300,12.0,16.0,44,-99.99,,,-99.99,,2013-02-06 20:01:00,
2013-02-06 15:11:00,16.0,-2.0,30.18,NW,320,9.0,-999.0,44,-99.99,,,-99.99,,2013-02-06 20:11:00,
2013-02-06 15:21:00,16.0,-2.0,30.19,NW,310,9.0,-999.0,44,-99.99,,,-99.99,,2013-02-06 20:21:00,
2013-02-06 15:32:00,16.0,-2.0,30.20,NW,320,12.0,16.0,44,-99.99,,,-99.99,,2013-02-06 20:32:00,
2013-02-06 15:42:00,16.0,-2.0,30.20,NW,320,10.0,16.0,44,-99.99,,,-99.99,,2013-02-06 20:42:00,
2013-02-06 15:52:00,16.0,-2.0,30.21,NNW,330,13.0,-999.0,44,-99.99,,,-99.99,,2013-02-06 20:52:00,
2013-02-06 16:02:00,16.0,-2.0,30.21,NNW,330,13.0,-999.0,44,-99.99,,,-99.99,,2013-02-06 21:02:00,
2013-02-06 16:11:00,16.0,-4.0,30.22,NW,320,9.0,-999.0,40,-99.99,,,-99.99,,2013-02-06 21:11:00,
2013-02-06 16:21:00,14.0,-6.0,30.23,NNW,340,8.0,-999.0,40,-99.99,,,-99.99,,2013-02-06 21:21:00,
2013-02-06 16:32:00,14.0,-6.0,30.23,North,350,8.0,-999.0,40,-99.99,,,-99.99,,2013-02-06 21:32:00,
2013-02-06 16:42:00,12.0,-6.0,30.24,North,350,7.0,-999.0,43,-99.99,,,-99.99,,2013-02-06 21:42:00,
2013-02-06 16:51:00,12.0,-6.0,30.24,North,350,6.0,-999.0,43,-99.99,,,-99.99,,2013-02-06 21:51:00,
2013-02-06 17:01:00,12.0,-6.0,30.24,North,350,6.0,-999.0,43,-99.99,,,-99.99,,2013-02-06 22:01:00,
2013-02-06 17:11:00,12.0,-6.0,30.25,North,360,3.0,-999.0,43,-99.99,,,-99.99,,2013-02-06 22:11:00,
2013-02-06 17:21:00,10.0,-6.0,30.25,North,10,3.0,-999.0,47,-99.99,,,-99.99,,2013-02-06 22:21:00,
2013-02-06 17:32:00,10.0,-6.0,30.26,NNE,20,3.0,-999.0,47,-99.99,,,-99.99,,2013-02-06 22:32:00,
2013-02-06 17:42:00,10.0,-4.0,30.26,NNE,20,3.0,-999.0,51,-99.99,,,-99.99,,2013-02-06 22:42:00,
2013-02-06 17:52:00,10.0,-4.0,30.27,NNE,20,5.0,-999.0,51,-99.99,,,-99.99,,2013-02-06 22:52:00,
2013-02-06 18:01:00,10.0,-4.0,30.27,NNE,20,5.0,-999.0,51,-99.99,,,-99.99,,2013-02-06 23:01:00,
2013-02-06 18:11:00,10.0,-4.0,30.28,NNE,20,3.0,-999.0,51,-99.99,,,-99.99,,2013-02-06 23:11:00,
2013-02-06 18:21:00,10.0,-2.0,30.29,NNE,20,3.0,-999.0,56,-99.99,,,-99.99,,2013-02-06 23:21:00,
2013-02-06 18:32:00,10.0,-2.0,30.29,NNE,30,3.0,-999.0,56,-99.99,,,-99.99,,2013-02-06 23:32:00,
2013-02-06 18:42:00,10.0,-2.0,30.29,NNE,30,3.0,-999.0,56,-99.99,,,-99.99,,2013-02-06 23:42:00,
2013-02-06 18:52:00,10.0,-4.0,30.30,North,0,0.0,-999.0,51,-99.99,,,-99.99,,2013-02-06 23:52:00,
2013-02-06 19:01:00,10.0,-4.0,30.30,North,0,0.0,-999.0,51,-99.99,,,-99.99,,2013-02-07 00:01:00,
2013-02-06 19:11:00,10.0,-2.0,30.30,North,0,0.0,-999.0,56,-99.99,,,-99.99,,2013-02-07 00:11:00,
2013-02-06 19:21:00,10.0,-2.0,30.31,North,0,0.0,-999.0,56,-99.99,,,-99.99,,2013-02-07 00:21:00,
2013-02-06 19:32:00,10.0,-2.0,30.31,North,0,0.0,-999.0,56,-99.99,,,-99.99,,2013-02-07 00:32:00,
2013-02-06 19:42:00,10.0,-2.0,30.31,North,0,0.0,-999.0,56,-99.99,,,-99.99,,2013-02-07 00:42:00,
2013-02-06 19:52:00,10.0,-2.0,30.32,North,0,0.0,-999.0,56,-99.99,,,-99.99,,2013-02-07 00:52:00,
2013-02-06 20:01:00,10.0,-2.0,30.32,North,0,0.0,-999.0,56,-99.99,,,-99.99,,2013-02-07 01:01:00,
2013-02-06 20:11:00,10.0,-2.0,30.32,North,0,0.0,-999.0,56,-99.99,,,-99.99,,2013-02-07 01:11:00,
2013-02-06 20:21:00,10.0,-2.0,30.34,North,0,0.0,-999.0,56,-99.99,,,-99.99,,2013-02-07 01:21:00,
2013-02-06 20:32:00,10.0,-2.0,30.34,North,0,0.0,-999.0,56,-99.99,,,-99.99,,2013-02-07 01:32:00,
2013-02-06 20:42:00,10.0,-2.0,30.34,North,0,0.0,-999.0,56,-99.99,,,-99.99,,2013-02-07 01:42:00,
2013-02-06 20:52:00,9.0,-2.0,30.35,North,0,0.0,-999.0,60,-99.99,,,-99.99,,2013-02-07 01:52:00,
2013-02-06 21:01:00,9.0,-2.0,30.35,North,0,0.0,-999.0,60,-99.99,,,-99.99,,2013-02-07 02:01:00,
2013-02-06 21:11:00,9.0,0.0,30.35,North,0,0.0,-999.0,66,-99.99,,,-99.99,,2013-02-07 02:11:00,
2013-02-06 21:21:00,7.0,0.0,30.35,North,0,0.0,-999.0,71,-99.99,,,-99.99,,2013-02-07 02:21:00,
2013-02-06 21:32:00,7.0,0.0,30.36,North,0,0.0,-999.0,71,-99.99,,,-99.99,,2013-02-07 02:32:00,
2013-02-06 21:41:00,7.0,0.0,30.36,North,0,0.0,-999.0,71,-99.99,,,-99.99,,2013-02-07 02:41:00,
2013-02-06 21:51:00,7.0,0.0,30.36,North,0,0.0,-999.0,71,-99.99,,,-99.99,,2013-02-07 02:51:00,
2013-02-06 22:02:00,5.0,0.0,30.37,North,0,0.0,-999.0,77,-99.99,,,-99.99,,2013-02-07 03:02:00,
2013-02-06 22:11:00,3.0,-2.0,30.37,North,0,0.0,-999.0,77,-99.99,,,-99.99,,2013-02-07 03:11:00,
2013-02-06 22:21:00,5.0,-2.0,30.37,North,0,0.0,-999.0,71,-99.99,,,-99.99,,2013-02-07 03:21:00,
2013-02-06 22:32:00,3.0,-2.0,30.37,North,0,0.0,-999.0,77,-99.99,,,-99.99,,2013-02-07 03:32:00,
2013-02-06 22:42:00,3.0,-2.0,30.37,North,0,0.0,-999.0,77,-99.99,,,-99.99,,2013-02-07 03:42:00,
2013-02-06 22:52:00,3.0,-2.0,30.38,North,0,0.0,-999.0,77,-99.99,,,-99.99,,2013-02-07 03:52:00,
2013-02-06 23:01:00,3.0,-2.0,30.38,North,0,0.0,-999.0,77,-99.99,,,-99.99,,2013-02-07 04:01:00,
2013-02-06 23:11:00,3.0,-2.0,30.38,North,0,0.0,-999.0,77,-99.99,,,-99.99,,2013-02-07 04:11:00,
2013-02-06 23:22:00,3.0,-2.0,30.38,North,0,0.0,-999.0,77,-99.99,,,-99.99,,2013-02-07 04:22:00,
2013-02-06 23:32:00,3.0,-2.0,30.38,South,190,3.0,-999.0,77,-99.99,,,-99.99,,2013-02-07 04:32:00,
2013-02-06 23:41:00,3.0,0.0,30.39,North,0,0.0,-999.0,84,-99.99,,,-99.99,,2013-02-07 04:41:00,
2013-02-06 23:53:00,3.0,-2.0,30.39,North,0,0.0,-999.0,77,-99.99,,,-99.99,,2013-02-07 04:53:00,